Showing default

ECHOSTAR 21, 42749

Orbit data source: Space-Track

ECHOSTAR 21, 42749 is a payload satellite owned by Echostar Mobile (US) in GEO that was launched on Thu, 08 Jun 2017 UTC via a PROTON-M/BRIZ-M launch vehicle from the Tyuratam Missile And Space Complex (TTMTR). Payload-class satellites include a variety of spacecraft equipped with specific instruments for various scientific and technological missions. These include communications satellites like Starlink; space stations such as the ISS; scientific satellites like the Hubble; Earth observation satellites from companies like Planet Labs, Umbra, and HawkEye 360; GPS; miniature CubeSats for education and research; and military/defense satellites.

Not visible in the next 10 days
Identifier
42749, 2017-032A
Orbit
GEO
Country
Flag of USUS
Related business
Manufacturer
SS/Loral (MDA)
Mission
Operational Commercial Communications
Bus & Motor
LS-1300, R-4D-11
Mass
6,871 kg wet, ~3,000 kg dry
Launch date (UTC)
2017-06-08 (9 years ago)
Launch vehicle
PROTON-M/BRIZ-M
Launch site
Tyuratam Missile And Space Complex (TTMTR)
Object type
Payload
Rocket body
Debris
Shape & HBR
Box + 2 Pan + 1 Dish, 16.2 m
Radar Cross Section
47.415 m², Large (>1 m²)

Expand to show TLE details & history
Last TLE update: 2 days ago

TLE from 2 days ago
0 ECHOSTAR 21
1 42749U 17032A   26171.32244802  .00000060  00000-0  00000+0 0  9996
2 42749   1.7707 355.9620 0002217  95.2291 303.6824  1.00271322 33134
Epoch: 2026-06-20T07:44Z
TLE epoch observation values (Epoch: 2026-06-20T07:44:19.508Z)
Latitude
1.12327°
Longitude
10.22677°
Altitude
35,780.869 km
Speed
3.075 km/s
True Right ascension
02h 19m 23s
True Declination
1° 07' 20"
Sunlit
Object was in daylight at epoch
Visualization orbit readout
Latitude
Unknown
Longitude
Unknown
Altitude
Unknown
Speed
Unknown
Apparent Right ascension
Unknown
Apparent Declination
Unknown
Sunlit
N/A
Visualization observer readout
Local Sidereal Time
00:54:43
Azimuth
Unknown
Elevation
Unknown
Doppler factor
Unknown
Orbital elements
Apogee altitude
35,797.142 km
Perigee altitude
35,778.445 km
Semi-major axis
42,165.931 km
Eccentricity
0.00022
Inclination
1.7707°
RAAN
355.962°
Arg. of periapsis
95.2291°
True anomaly
303.66126°
Mean anomaly
303.6824°
Eccentric anomaly
303.67183°
Mean motion
0.25067 °/min
Orbital period
1,436.16 mins
BSTAR
0
Loading maneuver chart data...
Computing Atmospheric mass density...
Loading historical data...
Loading historical data...
Loading historical data...
Loading historical data...
Loading historical data...
Loading historical data...
Loading historical data...
Other satellites on launch #32 in the year 2017 (2017-06-08 UTC)

Documentation

Showing up to 5 results
|